| time (UTC) | temp C | wind direction | speed KPH | gust KPH | rain 1hr cm | rain 24hr cm | rain mn cm | humidity % | barometer mb |
| 20260506161554 | 14 | 0 | 0.0 | 6.4 | 0.00 | 0.00 | 0.00 | 87 | 1008.6 |
| 20260506161041 | 14 | 207 | 0.0 | 3.2 | 0.00 | 0.00 | 0.00 | 87 | 1008.7 |
| 20260506160542 | 14 | 0 | 0.0 | 3.2 | 0.00 | 0.00 | 0.00 | 87 | 1008.8 |
| 20260506160056 | 14 | 0 | 0.0 | 3.2 | 0.00 | 0.00 | 0.00 | 87 | 1008.7 |
| 20260506155541 | 13 | 265 | 0.0 | 3.2 | 0.00 | 0.00 | 0.00 | 88 | 1008.8 |
| 20260506155042 | 13 | 0 | 0.0 | 3.2 | 0.00 | 0.00 | 0.00 | 88 | 1008.9 |
| 20260506154554 | 13 | 225 | 0.0 | 3.2 | 0.00 | 0.00 | 0.00 | 87 | 1009.0 |
| 20260506154042 | 13 | 219 | 0.0 | 12.9 | 0.00 | 0.00 | 0.00 | 87 | 1008.9 |
| 20260506153544 | 13 | 195 | 1.6 | 12.9 | 0.00 | 0.00 | 0.00 | 87 | 1009.0 |
| 20260506153053 | 13 | 360 | 1.6 | 11.3 | 0.00 | 0.00 | 0.00 | 87 | 1009.1 |
| 20260506152541 | 14 | 0 | 1.6 | 12.9 | 0.00 | 0.00 | 0.00 | 86 | 1009.0 |
| 20260506152043 | 14 | 160 | 6.4 | 12.9 | 0.00 | 0.00 | 0.00 | 86 | 1009.0 |
| 20260506151556 | 14 | 208 | 4.8 | 12.9 | 0.00 | 0.00 | 0.00 | 86 | 1009.3 |
| 20260506151041 | 14 | 186 | 1.6 | 4.8 | 0.00 | 0.00 | 0.00 | 86 | 1009.0 |
| 20260506150544 | 14 | 203 | 1.6 | 3.2 | 0.00 | 0.00 | 0.00 | 87 | 1008.8 |
| 20260506150100 | 14 | 175 | 0.0 | 3.2 | 0.00 | 0.00 | 0.00 | 87 | 1008.8 |
| 20260506145540 | 14 | 197 | 1.6 | 3.2 | 0.00 | 0.00 | 0.00 | 86 | 1008.9 |
| 20260506145041 | 14 | 198 | 0.0 | 3.2 | 0.00 | 0.00 | 0.00 | 87 | 1008.9 |
| 20260506144550 | 14 | 0 | 0.0 | 3.2 | 0.00 | 0.00 | 0.00 | 87 | 1008.8 |
| 20260506144041 | 13 | 186 | 0.0 | 3.2 | 0.00 | 0.00 | 0.00 | 87 | 1008.9 |
| 20260506143542 | 14 | 200 | 0.0 | 3.2 | 0.00 | 0.00 | 0.00 | 87 | 1008.9 |
| 20260506143044 | 14 | 0 | 1.6 | 3.2 | 0.00 | 0.00 | 0.00 | 86 | 1008.9 |
| 20260506142541 | 14 | 0 | 0.0 | 4.8 | 0.00 | 0.00 | 0.00 | 86 | 1009.1 |
| 20260506142041 | 14 | 181 | 1.6 | 11.3 | 0.00 | 0.00 | 0.00 | 85 | 1009.3 |
| 20260506141548 | 14 | 186 | 1.6 | 12.9 | 0.00 | 0.00 | 0.00 | 86 | 1009.3 |
| 20260506141042 | 14 | 360 | 4.8 | 12.9 | 0.00 | 0.00 | 0.00 | 86 | 1009.3 |
| 20260506140541 | 14 | 215 | 3.2 | 12.9 | 0.00 | 0.00 | 0.00 | 86 | 1009.2 |
| 20260506140049 | 15 | 189 | 6.4 | 12.9 | 0.00 | 0.00 | 0.00 | 86 | 1009.1 |
| 20260506135542 | 15 | 175 | 6.4 | 16.1 | 0.00 | 0.00 | 0.00 | 86 | 1009.1 |
| 20260506135041 | 14 | 217 | 8.0 | 16.1 | 0.00 | 0.00 | 0.00 | 86 | 1009.4 |
| 20260506134546 | 14 | 360 | 4.8 | 11.3 | 0.00 | 0.00 | 0.00 | 87 | 1009.5 |
| 20260506134045 | 14 | 196 | 3.2 | 11.3 | 0.00 | 0.00 | 0.00 | 87 | 1009.4 |
| 20260506133541 | 14 | 189 | 1.6 | 4.8 | 0.00 | 0.00 | 0.00 | 87 | 1009.2 |
| 20260506133106 | 14 | 192 | 0.0 | 4.8 | 0.00 | 0.00 | 0.00 | 87 | 1009.3 |
| 20260506132541 | 14 | 165 | 0.0 | 3.2 | 0.00 | 0.00 | 0.00 | 88 | 1009.2 |
| 20260506132043 | 13 | 194 | 1.6 | 3.2 | 0.00 | 0.00 | 0.00 | 88 | 1009.2 |
| 20260506131545 | 13 | 191 | 0.0 | 3.2 | 0.00 | 0.00 | 0.00 | 88 | 1009.0 |
| 20260506131044 | 13 | 193 | 1.6 | 3.2 | 0.00 | 0.00 | 0.00 | 88 | 1009.0 |
| 20260506130542 | 13 | 167 | 1.6 | 3.2 | 0.00 | 0.00 | 0.00 | 88 | 1009.1 |
| 20260506130050 | 13 | 200 | 1.6 | 3.2 | 0.00 | 0.00 | 0.00 | 89 | 1009.1 |
| 20260506125541 | 13 | 198 | 1.6 | 3.2 | 0.00 | 0.00 | 0.00 | 88 | 1009.1 |
| 20260506125041 | 13 | 194 | 1.6 | 3.2 | 0.00 | 0.00 | 0.00 | 89 | 1009.2 |
| 20260506124546 | 13 | 217 | 0.0 | 6.4 | 0.00 | 0.00 | 0.00 | 89 | 1009.1 |
| 20260506124045 | 13 | 198 | 1.6 | 6.4 | 0.00 | 0.00 | 0.00 | 89 | 1009.1 |
| 20260506123543 | 13 | 360 | 1.6 | 4.8 | 0.00 | 0.00 | 0.00 | 89 | 1009.3 |
| 20260506123055 | 13 | 207 | 1.6 | 4.8 | 0.00 | 0.00 | 0.00 | 89 | 1009.5 |
| 20260506122541 | 13 | 360 | 0.0 | 4.8 | 0.00 | 0.00 | 0.00 | 90 | 1009.4 |
| 20260506122041 | 13 | 223 | 1.6 | 4.8 | 0.00 | 0.00 | 0.00 | 90 | 1009.6 |
| 20260506121557 | 13 | 360 | 1.6 | 12.9 | 0.00 | 0.00 | 0.00 | 89 | 1009.5 |
| 20260506121042 | 13 | 360 | 6.4 | 12.9 | 0.00 | 0.00 | 0.00 | 90 | 1009.5 |
| 20260506120542 | 13 | 230 | 6.4 | 12.9 | 0.00 | 0.00 | 0.00 | 90 | 1009.6 |
| 20260506115542 | 13 | 229 | 3.2 | 14.5 | 0.00 | 0.00 | 0.00 | 90 | 1009.6 |
| 20260506115042 | 13 | 203 | 6.4 | 14.5 | 0.00 | 0.00 | 0.00 | 90 | 1009.4 |
| 20260506114552 | 13 | 203 | 4.8 | 16.1 | 0.00 | 0.00 | 0.00 | 90 | 1009.4 |
| 20260506114046 | 13 | 213 | 8.0 | 16.1 | 0.00 | 0.00 | 0.00 | 91 | 1009.4 |
| 20260506113541 | 13 | 219 | 9.7 | 17.7 | 0.00 | 0.00 | 0.00 | 91 | 1009.4 |
| 20260506113049 | 13 | 360 | 9.7 | 17.7 | 0.00 | 0.00 | 0.00 | 91 | 1009.5 |
| 20260506112545 | 13 | 231 | 9.7 | 16.1 | 0.00 | 0.00 | 0.00 | 91 | 1009.5 |
| 20260506112041 | 13 | 360 | 1.6 | 14.5 | 0.00 | 0.00 | 0.00 | 91 | 1009.4 |
| 20260506111548 | 13 | 235 | 1.6 | 14.5 | 0.00 | 0.00 | 0.00 | 91 | 1009.5 |
| 20260506111042 | 13 | 235 | 6.4 | 14.5 | 0.00 | 0.00 | 0.00 | 91 | 1009.5 |
| 20260506110542 | 12 | 244 | 4.8 | 16.1 | 0.00 | 0.00 | 0.00 | 91 | 1009.4 |
| 20260506105542 | 12 | 221 | 4.8 | 16.1 | 0.00 | 0.00 | 0.00 | 92 | 1009.4 |
| 20260506105046 | 12 | 223 | 4.8 | 14.5 | 0.00 | 0.00 | 0.00 | 92 | 1009.4 |
| 20260506104557 | 12 | 214 | 3.2 | 11.3 | 0.00 | 0.00 | 0.00 | 92 | 1009.4 |
| 20260506104041 | 12 | 360 | 1.6 | 6.4 | 0.00 | 0.00 | 0.00 | 92 | 1009.4 |
| 20260506103541 | 12 | 360 | 1.6 | 6.4 | 0.00 | 0.00 | 0.00 | 92 | 1009.4 |
| 20260506103048 | 12 | 219 | 1.6 | 9.7 | 0.00 | 0.00 | 0.00 | 92 | 1009.4 |
| 20260506102544 | 12 | 238 | 1.6 | 9.7 | 0.00 | 0.00 | 0.00 | 92 | 1009.3 |
| 20260506102045 | 12 | 360 | 3.2 | 9.7 | 0.00 | 0.00 | 0.00 | 92 | 1009.6 |
| 20260506101547 | 12 | 215 | 1.6 | 3.2 | 0.00 | 0.00 | 0.00 | 92 | 1009.5 |
| 20260506101042 | 12 | 236 | 0.0 | 3.2 | 0.00 | 0.00 | 0.00 | 92 | 1009.6 |
| 20260506100544 | 12 | 240 | 0.0 | 3.2 | 0.00 | 0.00 | 0.00 | 91 | 1009.4 |
| 20260506100101 | 12 | 241 | 0.0 | 3.2 | 0.00 | 0.00 | 0.00 | 91 | 1009.3 |
| 20260506095542 | 12 | 0 | 0.0 | 3.2 | 0.00 | 0.00 | 0.00 | 91 | 1009.3 |
| 20260506095042 | 12 | 0 | 0.0 | 3.2 | 0.00 | 0.00 | 0.00 | 91 | 1009.2 |
| 20260506094555 | 12 | 0 | 0.0 | 3.2 | 0.00 | 0.00 | 0.00 | 91 | 1009.3 |
| 20260506094041 | 12 | 0 | 0.0 | 3.2 | 0.00 | 0.00 | 0.00 | 91 | 1009.3 |
| 20260506093541 | 12 | 0 | 0.0 | 4.8 | 0.00 | 0.00 | 0.00 | 91 | 1009.4 |
| 20260506093043 | 12 | 217 | 0.0 | 4.8 | 0.00 | 0.00 | 0.00 | 91 | 1009.3 |
| 20260506092542 | 12 | 0 | 0.0 | 3.2 | 0.00 | 0.00 | 0.00 | 90 | 1009.2 |
| 20260506092045 | 12 | 0 | 0.0 | 3.2 | 0.00 | 0.00 | 0.00 | 90 | 1009.3 |
| 20260506091543 | 12 | 0 | 0.0 | 3.2 | 0.00 | 0.00 | 0.00 | 91 | 1009.4 |
| 20260506091043 | 12 | 0 | 0.0 | 3.2 | 0.00 | 0.00 | 0.00 | 91 | 1009.5 |
| 20260506090541 | 12 | 226 | 0.0 | 3.2 | 0.00 | 0.00 | 0.00 | 91 | 1009.5 |
| 20260506090043 | 12 | 209 | 0.0 | 3.2 | 0.00 | 0.00 | 0.00 | 91 | 1009.4 |
| 20260506085541 | 12 | 0 | 0.0 | 3.2 | 0.00 | 0.00 | 0.00 | 91 | 1009.4 |
| 20260506085041 | 12 | 207 | 0.0 | 3.2 | 0.00 | 0.00 | 0.00 | 91 | 1009.4 |
| 20260506084615 | 12 | 186 | 0.0 | 3.2 | 0.00 | 0.00 | 0.00 | 91 | 1009.6 |
| 20260506084041 | 12 | 185 | 0.0 | 3.2 | 0.00 | 0.00 | 0.00 | 91 | 1009.6 |
| 20260506083540 | 12 | 0 | 0.0 | 3.2 | 0.00 | 0.00 | 0.00 | 91 | 1009.7 |
| 20260506083046 | 12 | 196 | 0.0 | 1.6 | 0.00 | 0.00 | 0.00 | 91 | 1009.6 |
| 20260506082541 | 12 | 0 | 0.0 | 1.6 | 0.00 | 0.00 | 0.00 | 91 | 1009.7 |
| 20260506082043 | 12 | 199 | 0.0 | 3.2 | 0.00 | 0.00 | 0.00 | 91 | 1009.7 |
| 20260506081553 | 12 | 0 | 0.0 | 3.2 | 0.00 | 0.00 | 0.00 | 91 | 1009.7 |
| 20260506081041 | 12 | 198 | 0.0 | 3.2 | 0.00 | 0.00 | 0.00 | 90 | 1009.7 |
| 20260506080542 | 12 | 195 | 1.6 | 3.2 | 0.00 | 0.00 | 0.00 | 90 | 1009.6 |
| 20260506073050 | 12 | 205 | 0.0 | 3.2 | 0.00 | 0.00 | 0.00 | 91 | 1010.0 |
| 20260506072541 | 12 | 0 | 0.0 | 3.2 | 0.00 | 0.00 | 0.00 | 90 | 1009.9 |
| 20260506072042 | 12 | 198 | 0.0 | 3.2 | 0.00 | 0.00 | 0.00 | 90 | 1009.8 |
| 20260506071550 | 12 | 0 | 0.0 | 1.6 | 0.00 | 0.00 | 0.00 | 90 | 1009.8 |
| 20260506071041 | 12 | 0 | 0.0 | 3.2 | 0.00 | 0.00 | 0.00 | 90 | 1009.8 |
| 20260506070541 | 12 | 0 | 0.0 | 3.2 | 0.00 | 0.00 | 0.00 | 90 | 1009.8 |
| 20260506062041 | 12 | 0 | 1.6 | 3.2 | 0.00 | 0.00 | 0.00 | 89 | 1009.7 |
| 20260506061549 | 12 | 203 | 1.6 | 3.2 | 0.00 | 0.00 | 0.00 | 89 | 1009.7 |
| 20260506061041 | 12 | 215 | 1.6 | 3.2 | 0.00 | 0.00 | 0.00 | 89 | 1009.8 |
| 20260506060541 | 12 | 192 | 0.0 | 3.2 | 0.00 | 0.00 | 0.00 | 89 | 1009.8 |
| 20260506051041 | 13 | 223 | 0.0 | 12.9 | 0.00 | 0.00 | 0.00 | 86 | 1010.0 |
| 20260506050542 | 13 | 360 | 1.6 | 12.9 | 0.00 | 0.00 | 0.00 | 86 | 1010.0 |
| 20260506045042 | 13 | 360 | 1.6 | 14.5 | 0.00 | 0.00 | 0.00 | 85 | 1010.1 |
| 20260506044552 | 13 | 237 | 3.2 | 16.1 | 0.00 | 0.00 | 0.00 | 85 | 1010.1 |
| 20260506044045 | 13 | 242 | 6.4 | 16.1 | 0.00 | 0.00 | 0.00 | 85 | 1010.1 |
| 20260506043544 | 13 | 224 | 4.8 | 12.9 | 0.00 | 0.00 | 0.00 | 86 | 1010.1 |
| 20260506043048 | 13 | 232 | 3.2 | 11.3 | 0.00 | 0.00 | 0.00 | 86 | 1010.1 |
| 20260506042541 | 13 | 233 | 1.6 | 12.9 | 0.00 | 0.00 | 0.00 | 86 | 1010.1 |
| 20260506042041 | 13 | 360 | 1.6 | 12.9 | 0.00 | 0.00 | 0.00 | 85 | 1010.0 |
| 20260506041606 | 13 | 231 | 4.8 | 12.9 | 0.00 | 0.00 | 0.00 | 84 | 1010.1 |
| 20260506041041 | 14 | 360 | 6.4 | 12.9 | 0.00 | 0.00 | 0.00 | 84 | 1010.1 |
| 20260506040541 | 14 | 242 | 4.8 | 12.9 | 0.00 | 0.00 | 0.00 | 83 | 1010.0 |
| 20260506040049 | 15 | 217 | 6.4 | 12.9 | 0.00 | 0.00 | 0.00 | 83 | 1010.1 |
| 20260506035541 | 15 | 229 | 6.4 | 12.9 | 0.00 | 0.00 | 0.00 | 83 | 1010.1 |
| 20260506035041 | 15 | 234 | 6.4 | 12.9 | 0.00 | 0.00 | 0.00 | 83 | 1010.1 |
| 20260506034555 | 15 | 224 | 1.6 | 4.8 | 0.00 | 0.00 | 0.00 | 82 | 1010.1 |
| 20260506034043 | 15 | 220 | 1.6 | 3.2 | 0.00 | 0.00 | 0.00 | 81 | 1010.0 |
| 20260506033542 | 15 | 217 | 1.6 | 3.2 | 0.00 | 0.00 | 0.00 | 81 | 1010.0 |
| 20260506033052 | 15 | 360 | 1.6 | 3.2 | 0.00 | 0.00 | 0.00 | 81 | 1010.0 |
| 20260506032541 | 15 | 233 | 1.6 | 3.2 | 0.00 | 0.00 | 0.00 | 80 | 1010.0 |
| 20260506032041 | 15 | 0 | 1.6 | 3.2 | 0.00 | 0.00 | 0.00 | 80 | 1010.0 |
| 20260506031553 | 15 | 360 | 1.6 | 3.2 | 0.00 | 0.00 | 0.00 | 80 | 1009.9 |
| 20260506031042 | 15 | 243 | 1.6 | 3.2 | 0.00 | 0.00 | 0.00 | 79 | 1009.9 |
| 20260506030544 | 15 | 250 | 1.6 | 14.5 | 0.00 | 0.00 | 0.00 | 79 | 1010.1 |
| 20260506030047 | 15 | 360 | 3.2 | 14.5 | 0.00 | 0.00 | 0.00 | 79 | 1010.1 |
| 20260506025541 | 15 | 250 | 1.6 | 9.7 | 0.00 | 0.00 | 0.00 | 80 | 1010.0 |
| 20260506025044 | 15 | 236 | 3.2 | 14.5 | 0.00 | 0.00 | 0.00 | 80 | 1010.1 |
| 20260506024544 | 15 | 246 | 1.6 | 14.5 | 0.00 | 0.00 | 0.00 | 80 | 1010.1 |
| 20260506024042 | 15 | 238 | 6.4 | 14.5 | 0.00 | 0.00 | 0.00 | 80 | 1010.1 |
| 20260506023541 | 15 | 228 | 8.0 | 14.5 | 0.00 | 0.00 | 0.00 | 80 | 1010.0 |
| 20260506023103 | 15 | 248 | 1.6 | 22.5 | 0.00 | 0.00 | 0.00 | 80 | 1010.1 |
| 20260506022542 | 15 | 271 | 6.4 | 22.5 | 0.00 | 0.00 | 0.00 | 80 | 1010.1 |
| 20260506022042 | 15 | 286 | 1.6 | 11.3 | 0.00 | 0.00 | 0.00 | 81 | 1010.1 |
| 20260506021608 | 15 | 258 | 3.2 | 11.3 | 0.00 | 0.00 | 0.00 | 80 | 1009.9 |
| 20260506021049 | 15 | 240 | 1.6 | 12.9 | 0.00 | 0.00 | 0.00 | 80 | 1009.8 |
| 20260506020541 | 15 | 248 | 1.6 | 16.1 | 0.00 | 0.00 | 0.00 | 80 | 1009.9 |
| 20260506020048 | 15 | 244 | 1.6 | 16.1 | 0.00 | 0.00 | 0.00 | 79 | 1009.9 |
| 20260506015542 | 15 | 229 | 6.4 | 19.3 | 0.00 | 0.00 | 0.00 | 79 | 1009.8 |
| 20260506015046 | 15 | 255 | 1.6 | 19.3 | 0.00 | 0.00 | 0.00 | 78 | 1009.7 |
| 20260506014604 | 15 | 266 | 3.2 | 16.1 | 0.00 | 0.00 | 0.00 | 78 | 1009.6 |
| 20260506014045 | 15 | 278 | 6.4 | 16.1 | 0.00 | 0.00 | 0.00 | 78 | 1009.6 |
| 20260506013544 | 15 | 275 | 6.4 | 16.1 | 0.00 | 0.00 | 0.00 | 78 | 1009.5 |
| 20260506013057 | 15 | 283 | 1.6 | 17.7 | 0.00 | 0.00 | 0.00 | 77 | 1009.5 |
| 20260506012541 | 16 | 240 | 9.7 | 22.5 | 0.00 | 0.00 | 0.00 | 76 | 1009.2 |
| 20260506012042 | 16 | 249 | 12.9 | 32.2 | 0.00 | 0.00 | 0.00 | 76 | 1009.3 |
| 20260506011608 | 16 | 227 | 14.5 | 33.8 | 0.00 | 0.00 | 0.00 | 75 | 1009.2 |
| 20260506011042 | 16 | 248 | 16.1 | 35.4 | 0.00 | 0.00 | 0.00 | 75 | 1009.1 |
| 20260506010542 | 16 | 212 | 16.1 | 35.4 | 0.00 | 0.00 | 0.00 | 75 | 1008.9 |
| 20260506010056 | 16 | 236 | 19.3 | 35.4 | 0.00 | 0.00 | 0.00 | 75 | 1008.8 |
| 20260506005546 | 16 | 238 | 16.1 | 29.0 | 0.00 | 0.00 | 0.00 | 76 | 1008.9 |
| 20260506005044 | 16 | 259 | 19.3 | 29.0 | 0.00 | 0.00 | 0.00 | 76 | 1008.9 |
| 20260506004548 | 15 | 237 | 14.5 | 25.7 | 0.00 | 0.00 | 0.00 | 77 | 1008.7 |
| 20260506004041 | 15 | 274 | 14.5 | 24.1 | 0.00 | 0.00 | 0.00 | 76 | 1008.5 |
| 20260506003541 | 16 | 253 | 14.5 | 33.8 | 0.00 | 0.00 | 0.00 | 76 | 1008.4 |
| 20260506003055 | 16 | 239 | 16.1 | 38.6 | 0.00 | 0.00 | 0.00 | 75 | 1008.4 |
| 20260506002542 | 16 | 251 | 19.3 | 38.6 | 0.00 | 0.00 | 0.00 | 76 | 1008.6 |
| 20260506002041 | 16 | 224 | 22.5 | 37.0 | 0.00 | 0.00 | 0.00 | 76 | 1008.3 |
| 20260506001554 | 16 | 256 | 11.3 | 24.1 | 0.00 | 0.00 | 0.00 | 76 | 1008.3 |
| 20260506001041 | 15 | 252 | 9.7 | 19.3 | 0.00 | 0.00 | 0.00 | 77 | 1008.2 |
| 20260506000544 | 15 | 261 | 4.8 | 19.3 | 0.00 | 0.00 | 0.00 | 77 | 1008.3 |
| 20260506000051 | 15 | 250 | 4.8 | 27.4 | 0.00 | 0.00 | 0.00 | 76 | 1008.2 |
| 20260505235544 | 16 | 237 | 9.7 | 32.2 | 0.00 | 0.00 | 0.00 | 76 | 1008.1 |
| 20260505235041 | 15 | 227 | 14.5 | 32.2 | 0.00 | 0.00 | 0.00 | 76 | 1007.9 |
| 20260505234542 | 15 | 241 | 16.1 | 38.6 | 0.00 | 0.00 | 0.00 | 76 | 1007.7 |
| 20260505234042 | 16 | 228 | 22.5 | 38.6 | 0.00 | 0.00 | 0.00 | 75 | 1007.6 |
| 20260505233541 | 15 | 203 | 24.1 | 33.8 | 0.00 | 0.00 | 0.00 | 76 | 1007.7 |
| 20260505233052 | 15 | 234 | 22.5 | 38.6 | 0.00 | 0.00 | 0.00 | 76 | 1007.5 |
| 20260505232541 | 15 | 217 | 25.7 | 37.0 | 0.00 | 0.00 | 0.00 | 76 | 1007.3 |
| 20260505232043 | 15 | 214 | 24.1 | 37.0 | 0.00 | 0.00 | 0.00 | 76 | 1007.3 |
| 20260505231604 | 16 | 212 | 24.1 | 41.8 | 0.00 | 0.00 | 0.00 | 75 | 1007.3 |
| 20260505231041 | 16 | 215 | 24.1 | 41.8 | 0.00 | 0.00 | 0.00 | 75 | 1007.1 |
| 20260505230543 | 16 | 210 | 25.7 | 41.8 | 0.00 | 0.00 | 0.00 | 75 | 1007.1 |
| 20260505230051 | 16 | 200 | 24.1 | 41.8 | 0.00 | 0.00 | 0.00 | 75 | 1007.1 |
| 20260505225542 | 16 | 210 | 24.1 | 41.8 | 0.00 | 0.00 | 0.00 | 75 | 1007.1 |
| 20260505225042 | 16 | 165 | 24.1 | 40.2 | 0.00 | 0.00 | 0.00 | 75 | 1007.0 |
| 20260505224551 | 16 | 193 | 20.9 | 33.8 | 0.00 | 0.00 | 0.00 | 75 | 1007.0 |
| 20260505224041 | 16 | 205 | 22.5 | 33.8 | 0.00 | 0.00 | 0.00 | 75 | 1007.1 |
| 20260505223542 | 16 | 228 | 20.9 | 33.8 | 0.00 | 0.00 | 0.00 | 76 | 1007.2 |
| 20260505223054 | 16 | 224 | 20.9 | 37.0 | 0.00 | 0.00 | 0.00 | 76 | 1007.3 |
| 20260505222545 | 16 | 218 | 20.9 | 40.2 | 0.00 | 0.00 | 0.00 | 76 | 1007.3 |
| 20260505222042 | 16 | 218 | 25.7 | 40.2 | 0.00 | 0.00 | 0.00 | 75 | 1007.3 |
| 20260505221555 | 16 | 219 | 24.1 | 37.0 | 0.00 | 0.00 | 0.00 | 75 | 1007.2 |
| 20260505221042 | 16 | 213 | 25.7 | 41.8 | 0.00 | 0.00 | 0.00 | 75 | 1007.2 |
| 20260505220543 | 16 | 213 | 27.4 | 41.8 | 0.00 | 0.00 | 0.00 | 74 | 1007.2 |
| 20260505215543 | 16 | 223 | 16.1 | 30.6 | 0.00 | 0.00 | 0.00 | 74 | 1007.3 |
| 20260505215042 | 17 | 219 | 16.1 | 25.7 | 0.00 | 0.00 | 0.00 | 73 | 1007.2 |
| 20260505214556 | 17 | 248 | 9.7 | 22.5 | 0.00 | 0.00 | 0.00 | 74 | 1007.3 |
| 20260505214043 | 17 | 242 | 1.6 | 17.7 | 0.00 | 0.00 | 0.00 | 74 | 1007.3 |
| 20260505213541 | 17 | 239 | 6.4 | 17.7 | 0.00 | 0.00 | 0.00 | 73 | 1007.2 |
| 20260505213053 | 17 | 234 | 3.2 | 16.1 | 0.00 | 0.00 | 0.00 | 73 | 1007.4 |
| 20260505212541 | 17 | 247 | 1.6 | 17.7 | 0.00 | 0.00 | 0.00 | 73 | 1007.4 |
| 20260505212042 | 17 | 237 | 9.7 | 17.7 | 0.00 | 0.00 | 0.00 | 72 | 1007.2 |
| 20260505211546 | 18 | 216 | 8.0 | 24.1 | 0.00 | 0.00 | 0.00 | 70 | 1007.3 |
| 20260505211043 | 18 | 187 | 9.7 | 24.1 | 0.00 | 0.00 | 0.00 | 71 | 1007.3 |
| 20260505210541 | 18 | 287 | 9.7 | 22.5 | 0.00 | 0.00 | 0.00 | 72 | 1007.2 |
| 20260505210055 | 18 | 277 | 6.4 | 22.5 | 0.00 | 0.00 | 0.00 | 73 | 1007.3 |
| 20260505205541 | 17 | 212 | 9.7 | 20.9 | 0.00 | 0.00 | 0.00 | 74 | 1007.5 |
| 20260505205044 | 17 | 250 | 8.0 | 17.7 | 0.00 | 0.00 | 0.00 | 74 | 1007.3 |
| 20260505204545 | 17 | 285 | 0.0 | 16.1 | 0.00 | 0.00 | 0.00 | 75 | 1007.3 |
| 20260505204041 | 17 | 244 | 4.8 | 16.1 | 0.00 | 0.00 | 0.00 | 75 | 1007.3 |
| 20260505203545 | 16 | 223 | 3.2 | 14.5 | 0.00 | 0.00 | 0.00 | 77 | 1007.1 |
| 20260505203107 | 16 | 211 | 4.8 | 17.7 | 0.00 | 0.00 | 0.00 | 77 | 1007.2 |
| 20260505202543 | 16 | 0 | 8.0 | 17.7 | 0.00 | 0.00 | 0.00 | 78 | 1007.3 |
| 20260505202042 | 16 | 232 | 8.0 | 19.3 | 0.00 | 0.00 | 0.00 | 77 | 1007.4 |
| 20260505201557 | 16 | 360 | 3.2 | 22.5 | 0.00 | 0.00 | 0.00 | 77 | 1007.3 |
| 20260505201045 | 16 | 221 | 11.3 | 22.5 | 0.00 | 0.00 | 0.00 | 77 | 1007.5 |
| 20260505200542 | 16 | 206 | 12.9 | 25.7 | 0.00 | 0.00 | 0.00 | 77 | 1007.5 |
| 20260505200055 | 16 | 159 | 12.9 | 25.7 | 0.00 | 0.00 | 0.00 | 78 | 1007.4 |
| 20260505195544 | 16 | 222 | 16.1 | 25.7 | 0.00 | 0.00 | 0.00 | 78 | 1007.5 |
| 20260505195041 | 16 | 208 | 11.3 | 24.1 | 0.00 | 0.00 | 0.00 | 77 | 1007.5 |
| 20260505194547 | 16 | 187 | 12.9 | 24.1 | 0.00 | 0.00 | 0.00 | 77 | 1007.7 |
| 20260505194042 | 16 | 146 | 12.9 | 32.2 | 0.00 | 0.00 | 0.00 | 77 | 1007.6 |
| 20260505193542 | 16 | 178 | 16.1 | 32.2 | 0.00 | 0.00 | 0.00 | 77 | 1007.6 |
| 20260505193052 | 16 | 186 | 17.7 | 29.0 | 0.00 | 0.00 | 0.00 | 77 | 1007.7 |
| 20260505192607 | 16 | 198 | 16.1 | 25.7 | 0.00 | 0.00 | 0.00 | 77 | 1007.7 |
| 20260505192044 | 16 | 215 | 12.9 | 25.7 | 0.00 | 0.00 | 0.00 | 77 | 1007.8 |
| 20260505191603 | 16 | 209 | 14.5 | 25.7 | 0.00 | 0.00 | 0.00 | 77 | 1008.0 |
| 20260505191041 | 16 | 196 | 16.1 | 24.1 | 0.00 | 0.00 | 0.00 | 76 | 1008.2 |
| 20260505190541 | 16 | 153 | 11.3 | 24.1 | 0.00 | 0.00 | 0.00 | 76 | 1008.3 |
| 20260505190100 | 16 | 188 | 12.9 | 22.5 | 0.00 | 0.00 | 0.00 | 77 | 1008.3 |
| 20260505185542 | 16 | 221 | 4.8 | 17.7 | 0.00 | 0.00 | 0.00 | 77 | 1008.5 |
| 20260505185041 | 17 | 203 | 8.0 | 20.9 | 0.00 | 0.00 | 0.00 | 77 | 1008.6 |
| 20260505184555 | 16 | 178 | 9.7 | 20.9 | 0.00 | 0.00 | 0.00 | 78 | 1008.5 |
| 20260505184042 | 16 | 168 | 11.3 | 24.1 | 0.00 | 0.00 | 0.00 | 78 | 1008.6 |
| 20260505183544 | 16 | 180 | 11.3 | 24.1 | 0.00 | 0.00 | 0.00 | 78 | 1008.5 |
| 20260505183053 | 16 | 203 | 12.9 | 24.1 | 0.00 | 0.00 | 0.00 | 77 | 1008.5 |
| 20260505182541 | 16 | 175 | 11.3 | 25.7 | 0.00 | 0.00 | 0.00 | 78 | 1008.6 |
| 20260505182041 | 16 | 182 | 12.9 | 25.7 | 0.00 | 0.00 | 0.00 | 78 | 1008.6 |
| 20260505181556 | 16 | 187 | 14.5 | 27.4 | 0.00 | 0.00 | 0.00 | 78 | 1008.5 |
| 20260505181041 | 16 | 185 | 14.5 | 27.4 | 0.00 | 0.00 | 0.00 | 78 | 1008.5 |
| 20260505180541 | 16 | 200 | 11.3 | 27.4 | 0.00 | 0.00 | 0.00 | 77 | 1008.6 |
| 20260505180053 | 16 | 187 | 16.1 | 27.4 | 0.00 | 0.00 | 0.00 | 77 | 1008.6 |
| 20260505175541 | 16 | 197 | 12.9 | 24.1 | 0.00 | 0.00 | 0.00 | 76 | 1008.5 |
| 20260505175041 | 16 | 176 | 12.9 | 24.1 | 0.00 | 0.00 | 0.00 | 77 | 1008.7 |
| 20260505174550 | 17 | 360 | 8.0 | 17.7 | 0.00 | 0.00 | 0.00 | 77 | 1008.6 |
| 20260505174042 | 16 | 185 | 9.7 | 20.9 | 0.00 | 0.00 | 0.00 | 77 | 1008.6 |
| 20260505173541 | 16 | 157 | 9.7 | 20.9 | 0.00 | 0.00 | 0.00 | 78 | 1008.6 |
| 20260505173052 | 17 | 186 | 8.0 | 20.9 | 0.00 | 0.00 | 0.00 | 77 | 1008.7 |
| 20260505172541 | 17 | 212 | 11.3 | 29.0 | 0.00 | 0.00 | 0.00 | 77 | 1008.6 |
| 20260505172042 | 17 | 208 | 12.9 | 29.0 | 0.00 | 0.00 | 0.00 | 76 | 1008.6 |
| 20260505171550 | 17 | 177 | 9.7 | 16.1 | 0.00 | 0.00 | 0.00 | 75 | 1008.9 |
| 20260505171042 | 17 | 163 | 4.8 | 12.9 | 0.00 | 0.00 | 0.00 | 75 | 1008.7 |
| 20260505170541 | 17 | 207 | 3.2 | 12.9 | 0.00 | 0.00 | 0.00 | 75 | 1008.9 |
| 20260505170103 | 17 | 208 | 8.0 | 12.9 | 0.00 | 0.00 | 0.00 | 75 | 1009.1 |
| 20260505165540 | 17 | 242 | 8.0 | 14.5 | 0.00 | 0.00 | 0.00 | 74 | 1009.1 |
| 20260505165045 | 18 | 222 | 4.8 | 14.5 | 0.00 | 0.00 | 0.00 | 72 | 1009.1 |
| 20260505164553 | 18 | 184 | 0.0 | 12.9 | 0.00 | 0.00 | 0.00 | 73 | 1009.1 |
| 20260505164042 | 18 | 200 | 4.8 | 12.9 | 0.00 | 0.00 | 0.00 | 73 | 1009.1 |
| 20260505163541 | 18 | 184 | 4.8 | 11.3 | 0.00 | 0.00 | 0.00 | 72 | 1009.1 |
| 20260505163045 | 18 | 180 | 1.6 | 4.8 | 0.00 | 0.00 | 0.00 | 73 | 1009.2 |
| 20260505162542 | 17 | 142 | 0.0 | 8.0 | 0.00 | 0.00 | 0.00 | 74 | 1009.3 |
| 20260505162042 | 17 | 171 | 1.6 | 8.0 | 0.00 | 0.00 | 0.00 | 74 | 1009.4 |